Location: Newark
(41.6500°N, 71.4833°W)
Time: 01:22:16
(UTC+00:00)

Transit 2A Rocket - Pass Details

Date: 30 January 2020
Orbit: 591 x 912 km, 66.7° (Epoch: 25 February)

Event Time Altitude Azimuth Distance (km) Brightness Sun altitude
Rises 15:57:20 0° 343° (NNW) 3,003 7.5 29.0°
Reaches altitude 10° 16:00:25 10° 5° (N) 2,147 6.9 29.1°
Maximum altitude 16:03:30 17° 44° (NE) 1,804 6.8 29.3°
Drops below altitude 10° 16:06:44 10° 83° (E) 2,274 7.6 29.4°
Sets 16:10:07 0° 104° (ESE) 3,269 8.6 29.6°
